Time,TemperatureF,DewpointF,PressureIn,WindDirection,WindDirectionDegrees,WindSpeedMPH,WindSpeedGustMPH,Humidity,HourlyPrecipIn,Conditions,Clouds,dailyrainin,SoftwareType,DateUTC
2013-03-30 13:00:00,54.0,41.0,-100.00,SE,130,13.0,20.0,60,-99.99,,,-99.99,,2013-03-30 18:00:00,
2013-03-30 13:53:00,54.0,41.0,-100.00,SE,130,13.0,20.0,60,-99.99,,,-99.99,,2013-03-30 18:53:00,
2013-03-30 14:13:00,54.0,41.0,-100.00,SSE,150,4.0,19.0,61,-99.99,,,-99.99,,2013-03-30 19:13:00,
2013-03-30 14:22:00,54.0,40.0,-100.00,SSE,165,8.0,14.0,59,-99.99,,,-99.99,,2013-03-30 19:22:00,
2013-03-30 14:32:00,54.0,40.0,-100.00,SSE,165,8.0,14.0,59,-99.99,,,-99.99,,2013-03-30 19:32:00,
2013-03-30 14:42:00,54.0,40.0,-100.00,SSE,165,8.0,14.0,59,-99.99,,,-99.99,,2013-03-30 19:42:00,
2013-03-30 14:53:00,55.0,39.0,-100.00,South,175,9.0,18.0,54,-99.99,,,-99.99,,2013-03-30 19:53:00,
2013-03-30 15:02:00,55.0,39.0,-100.00,South,175,9.0,18.0,54,-99.99,,,-99.99,,2013-03-30 20:02:00,
2013-03-30 15:12:00,54.0,39.0,-100.00,SE,130,10.0,20.0,56,-99.99,,,-99.99,,2013-03-30 20:12:00,
2013-03-30 15:22:00,54.0,40.0,-100.00,South,175,7.0,16.0,61,-99.99,,,-99.99,,2013-03-30 20:22:00,
2013-03-30 15:32:00,54.0,40.0,-100.00,South,175,7.0,16.0,61,-99.99,,,-99.99,,2013-03-30 20:32:00,
2013-03-30 15:42:00,54.0,41.0,-100.00,SE,135,9.0,14.0,61,-99.99,,,-99.99,,2013-03-30 20:42:00,
2013-03-30 15:53:00,54.0,40.0,-100.00,SE,145,4.0,11.0,61,-99.99,,,-99.99,,2013-03-30 20:53:00,
2013-03-30 16:02:00,54.0,40.0,-100.00,SE,145,4.0,11.0,61,-99.99,,,-99.99,,2013-03-30 21:02:00,
2013-03-30 16:12:00,53.0,40.0,-100.00,South,170,7.0,16.0,60,-99.99,,,-99.99,,2013-03-30 21:12:00,
2013-03-30 16:22:00,54.0,40.0,-100.00,SSE,150,6.0,14.0,59,-99.99,,,-99.99,,2013-03-30 21:22:00,
2013-03-30 16:34:00,54.0,40.0,-100.00,SSE,150,6.0,14.0,59,-99.99,,,-99.99,,2013-03-30 21:34:00,
2013-03-30 16:43:00,54.0,40.0,-100.00,SE,135,6.0,12.0,60,-99.99,,,-99.99,,2013-03-30 21:43:00,
2013-03-30 16:53:00,54.0,40.0,-100.00,ESE,115,10.0,16.0,60,-99.99,,,-99.99,,2013-03-30 21:53:00,
2013-03-30 17:03:00,54.0,40.0,-100.00,ESE,115,10.0,16.0,60,-99.99,,,-99.99,,2013-03-30 22:03:00,
2013-03-30 17:13:00,54.0,40.0,-100.00,SE,130,6.0,16.0,60,-99.99,,,-99.99,,2013-03-30 22:13:00,
2013-03-30 17:23:00,54.0,40.0,-100.00,SE,125,6.0,14.0,59,-99.99,,,-99.99,,2013-03-30 22:23:00,
2013-03-30 17:33:00,54.0,40.0,-100.00,SE,125,6.0,14.0,59,-99.99,,,-99.99,,2013-03-30 22:33:00,
2013-03-30 17:43:00,54.0,38.0,-100.00,SSW,195,5.0,17.0,55,-99.99,,,-99.99,,2013-03-30 22:43:00,
2013-03-30 17:53:00,53.0,39.0,-100.00,South,185,9.0,21.0,58,-99.99,,,-99.99,,2013-03-30 22:53:00,
2013-03-30 18:02:00,53.0,39.0,-100.00,South,185,9.0,21.0,58,-99.99,,,-99.99,,2013-03-30 23:02:00,
2013-03-30 18:12:00,53.0,39.0,-100.00,South,170,7.0,14.0,59,-99.99,,,-99.99,,2013-03-30 23:12:00,
2013-03-30 18:22:00,53.0,39.0,-100.00,South,190,10.0,16.0,60,-99.99,,,-99.99,,2013-03-30 23:22:00,
2013-03-30 18:32:00,53.0,39.0,-100.00,South,190,10.0,16.0,60,-99.99,,,-99.99,,2013-03-30 23:32:00,
2013-03-30 18:42:00,52.0,40.0,-100.00,South,175,6.0,16.0,63,-99.99,,,-99.99,,2013-03-30 23:42:00,
2013-03-30 18:53:00,51.0,39.0,-100.00,SSE,150,6.0,14.0,63,-99.99,,,-99.99,,2013-03-30 23:53:00,
2013-03-30 19:02:00,51.0,39.0,-100.00,SSE,150,6.0,14.0,63,-99.99,,,-99.99,,2013-03-31 00:02:00,
2013-03-30 19:12:00,51.0,40.0,-100.00,SE,145,9.0,16.0,65,-99.99,,,-99.99,,2013-03-31 00:12:00,
2013-03-30 19:22:00,51.0,41.0,-100.00,SSE,160,7.0,16.0,68,-99.99,,,-99.99,,2013-03-31 00:22:00,
2013-03-30 19:32:00,51.0,41.0,-100.00,SSE,160,7.0,16.0,68,-99.99,,,-99.99,,2013-03-31 00:32:00,
2013-03-30 19:42:00,51.0,41.0,-100.00,SSE,160,7.0,16.0,68,-99.99,,,-99.99,,2013-03-31 00:42:00,
2013-03-30 19:53:00,50.0,43.0,-100.00,South,175,5.0,12.0,76,-99.99,,,-99.99,,2013-03-31 00:53:00,
2013-03-30 20:02:00,50.0,43.0,-100.00,South,175,5.0,12.0,76,-99.99,,,-99.99,,2013-03-31 01:02:00,
2013-03-30 20:12:00,49.0,44.0,-100.00,SSW,195,7.0,14.0,81,-99.99,,,-99.99,,2013-03-31 01:12:00,
2013-03-30 20:22:00,49.0,44.0,-100.00,South,185,6.0,11.0,84,-99.99,,,-99.99,,2013-03-31 01:22:00,
2013-03-30 20:32:00,49.0,44.0,-100.00,South,185,6.0,11.0,84,-99.99,,,-99.99,,2013-03-31 01:32:00,
2013-03-30 20:42:00,48.0,44.0,-100.00,South,180,9.0,16.0,86,-99.99,,,-99.99,,2013-03-31 01:42:00,
2013-03-30 20:53:00,48.0,45.0,-100.00,South,180,4.0,15.0,87,-99.99,,,-99.99,,2013-03-31 01:53:00,
2013-03-30 21:02:00,48.0,45.0,-100.00,South,180,4.0,15.0,87,-99.99,,,-99.99,,2013-03-31 02:02:00,
2013-03-30 21:13:00,48.0,45.0,-100.00,South,180,6.0,12.0,89,-99.99,,,-99.99,,2013-03-31 02:13:00,
2013-03-30 21:22:00,48.0,45.0,-100.00,SSW,195,4.0,9.0,91,-99.99,,,-99.99,,2013-03-31 02:22:00,
2013-03-30 21:32:00,48.0,45.0,-100.00,SSW,195,4.0,9.0,91,-99.99,,,-99.99,,2013-03-31 02:32:00,
2013-03-30 21:43:00,47.0,45.0,-100.00,SSW,205,3.0,10.0,92,-99.99,,,-99.99,,2013-03-31 02:43:00,
2013-03-30 21:52:00,47.0,45.0,-100.00,SSW,205,3.0,10.0,92,-99.99,,,-99.99,,2013-03-31 02:52:00,
2013-03-30 22:02:00,47.0,45.0,-100.00,South,180,5.0,9.0,92,-99.99,,,-99.99,,2013-03-31 03:02:00,
2013-03-30 22:12:00,48.0,45.0,-100.00,South,185,3.0,12.0,91,-99.99,,,-99.99,,2013-03-31 03:12:00,
2013-03-30 22:22:00,48.0,45.0,-100.00,South,180,4.0,9.0,91,-99.99,,,-99.99,,2013-03-31 03:22:00,
2013-03-30 22:33:00,48.0,45.0,-100.00,South,180,4.0,9.0,91,-99.99,,,-99.99,,2013-03-31 03:33:00,
2013-03-30 22:43:00,47.0,45.0,-100.00,SSW,205,4.0,8.0,92,-99.99,,,-99.99,,2013-03-31 03:43:00,
2013-03-30 22:54:00,47.0,45.0,-100.00,SSE,160,5.0,9.0,92,-99.99,,,-99.99,,2013-03-31 03:54:00,
2013-03-30 23:03:00,47.0,-99.9,-100.00,SSE,160,5.0,9.0,92,-99.99,,,-99.99,,2013-03-31 04:03:00,
2013-03-30 23:13:00,47.0,45.0,-100.00,SW,215,4.0,8.0,91,-99.99,,,-99.99,,2013-03-31 04:13:00,
2013-03-30 23:23:00,47.0,45.0,-100.00,SW,225,4.0,9.0,91,-99.99,,,-99.99,,2013-03-31 04:23:00,
2013-03-30 23:32:00,47.0,45.0,-100.00,SW,225,4.0,9.0,91,-99.99,,,-99.99,,2013-03-31 04:32:00,
2013-03-30 23:42:00,47.0,45.0,-100.00,SW,215,4.0,8.0,92,-99.99,,,-99.99,,2013-03-31 04:42:00,
2013-03-30 23:53:00,47.0,45.0,-100.00,SSW,195,4.0,8.0,92,-99.99,,,-99.99,,2013-03-31 04:53:00,